DELTA 2 R/B(1)

Last updated on Wed Jul 09 2025 00:02:13 GMT+0000 (Coordinated Universal Time)

1 20453U 90008B 25189.61875244 .00022924 00000+0 50438-3 0 9994 2 20453 35.6113 305.5102 0136170 194.7578 164.9153 15.33745216888415
UTC large
Height (km)
Speed (km/s)
/
Latitude / Longitude
Inclination (degrees)
Orbital Period (minutes)
Azimuth
Elevation
Range (km)
Doppler Factor

Next 0 passes for location: London (51.5072 / 0.1276)

Sorry there are no passes over London.